Theta_e
348 355 364 363 363 364 364 363 363 363 363 363 363 363 361 361 360 359 358 358 358 358 357 358 359 358 358 360 360 360 360 358 356 354 351 350 352 354 355 355 355 353 359
352 356 364 364 363 363 364 363 365 365 362 363 360 360 359 359 359 358 358 357 358 358 357 357 358 359 357 357 359 358 358 359 358 357 355 351 350 348 352 353 355 355 358
353 357 359 365 364 363 363 363 363 361 361 363 360 359 359 359 359 359 358 357 358 358 358 358 358 358 359 357 357 359 358 357 357 357 358 349 349 352 354 353 356 358 359
355 356 357 364 364 361 362 362 362 361 361 361 361 361 360 360 360 360 360 359 359 359 358 358 359 360 360 359 357 356 358 355 352 350 343 347 347 355 356 358 356 358 358
354 356 357 364 364 362 363 361 360 360 361 361 361 360 360 360 360 360 360 360 359 358 358 359 359 360 360 360 359 356 356 355 356 343 339 342 345 353 357 359 359 358 358
352 354 360 361 361 362 362 361 361 360 361 362 361 361 360 360 360 359 359 358 358 358 358 359 359 359 359 360 358 356 357 356 353 343 338 344 346 357 357 358 359 358 358
351 356 356 363 362 363 362 359 359 361 362 361 358 362 360 360 358 358 359 360 360 359 360 359 359 358 359 357 358 355 353 354 349 347 345 342 346 356 357 356 358 358 357
353 357 358 364 364 363 362 359 359 361 360 361 361 360 361 361 361 360 359 359 360 360 359 359 359 358 359 356 353 353 353 354 353 348 351 347 351 357 358 357 355 358 358
355 356 358 358 360 363 361 360 359 361 360 361 362 361 361 360 360 361 360 359 359 359 360 359 358 357 357 357 354 355 356 356 350 348 349 349 357 357 358 358 356 358 358
353 356 355 355 356 354 353 361 360 362 363 362 361 361 361 360 360 357 359 359 360 360 360 359 359 358 358 357 355 355 356 355 350 349 348 345 350 358 358 359 358 359 358
351 350 351 353 352 352 352 356 361 362 362 362 361 360 360 353 353 355 359 360 360 360 360 360 359 360 360 359 358 357 357 349 347 347 345 348 348 359 359 358 359 359 358
345 348 349 349 351 351 355 353 352 352 353 354 355 354 352 351 351 355 358 360 360 360 360 361 360 358 358 350 352 357 351 348 345 344 343 347 351 358 359 359 358 358 359
345 348 349 348 349 349 350 352 353 351 354 354 353 352 350 351 350 353 352 352 353 356 354 355 353 352 351 350 348 349 350 348 345 343 346 350 353 356 361 360 359 358 358
343 346 347 347 347 346 348 351 352 350 350 351 351 350 349 348 349 350 351 350 350 348 350 349 349 351 350 350 347 346 348 346 346 346 346 351 353 356 357 359 359 358 358
342 343 345 345 343 345 347 350 350 349 350 348 346 348 350 349 348 349 348 349 349 348 347 346 347 348 348 348 349 346 347 346 345 345 346 352 354 357 354 356 357 358 358
340 341 343 343 343 344 345 347 348 348 350 351 349 349 352 348 347 348 349 351 350 349 348 347 347 346 347 348 348 348 348 347 347 347 347 347 355 356 356 355 355 353 354
339 340 341 342 345 343 343 344 344 347 349 350 350 351 352 350 348 351 349 349 348 351 350 350 350 347 350 350 349 349 350 349 348 348 348 346 350 356 354 353 355 355 353
338 339 341 346 345 343 343 345 345 346 347 346 348 351 352 353 352 351 349 348 349 351 349 348 346 345 342 344 344 348 349 351 351 350 349 347 348 350 353 353 353 355 352
339 341 342 345 344 343 345 345 348 346 345 345 350 350 353 355 354 351 350 349 349 345 345 341 336 336 340 346 347 346 347 348 350 353 350 349 349 348 346 349 354 354 352
341 343 343 344 344 342 345 344 345 346 349 349 349 352 354 352 356 349 351 349 350 347 337 336 333 336 338 344 348 345 345 345 347 347 350 352 348 346 346 348 347 350 353
341 341 340 340 342 341 343 341 341 341 345 345 346 349 349 346 353 351 350 350 348 339 336 334 333 333 335 341 338 338 339 343 342 343 347 345 348 347 345 347 346 346 349
339 340 340 340 341 342 343 342 343 344 344 346 348 347 348 348 353 352 349 349 343 335 333 335 332 330 334 333 335 333 329 334 337 339 342 345 343 345 345 346 342 337 336
337 337 340 340 341 343 344 343 345 348 349 348 347 346 349 353 353 353 349 346 341 335 336 336 335 330 328 333 333 335 326 324 330 336 337 341 340 340 341 339 335 333 331
337 338 341 339 341 344 344 342 342 341 341 345 346 347 349 352 352 353 350 344 338 334 336 338 337 333 329 326 328 333 336 336 327 324 334 334 337 334 336 337 333 330 326
338 337 338 340 341 344 344 343 343 341 343 342 339 338 340 348 353 353 350 341 339 340 341 337 333 330 329 327 326 327 327 331 329 324 322 326 327 324 327 331 329 326 324
339 339 340 341 341 343 344 343 343 342 342 335 333 329 337 347 349 350 347 344 341 342 339 335 333 331 328 328 327 327 324 326 326 325 322 322 321 320 321 324 325 325 324
Wind_Speed
2 5 13 16 16 17 19 19 18 18 19 18 18 18 18 18 16 15 16 14 13 12 10 12 11 11 9 9 11 11 12 12 13 11 8 9 11 8 10 10 14 11 14
4 6 14 16 17 16 18 17 17 17 17 18 17 17 17 17 15 14 14 13 11 11 8 9 9 10 8 9 10 10 10 11 10 11 9 9 12 7 3 7 10 12 15
6 7 10 14 16 17 15 15 17 17 17 17 16 16 15 15 15 14 13 11 10 8 7 8 8 8 8 7 8 8 11 11 10 10 9 3 4 10 6 7 6 11 14
6 7 6 13 14 15 14 13 14 16 15 15 14 14 13 12 12 13 12 10 9 8 7 6 7 7 7 6 6 6 7 10 10 7 4 4 4 10 11 13 9 11 11
7 6 9 13 13 13 13 13 12 13 13 14 12 12 12 10 10 11 11 10 8 6 6 6 7 8 7 7 6 6 4 7 7 7 4 4 3 9 12 12 10 12 12
7 6 13 14 13 12 12 12 11 11 11 12 11 11 10 10 8 8 9 9 7 5 5 5 6 6 5 7 8 7 6 8 9 5 4 3 2 10 12 11 12 8 9
7 6 10 13 13 11 12 11 11 9 9 9 11 11 10 9 10 8 6 7 7 6 6 5 4 4 6 8 8 6 2 4 5 5 4 4 2 4 9 10 11 10 7
11 8 9 14 13 12 11 10 9 8 8 8 9 9 10 8 8 9 7 6 6 6 6 6 4 4 6 8 9 4 2 3 4 4 4 5 4 8 9 9 9 12 10
9 7 6 6 10 12 11 11 9 9 8 9 8 9 8 7 7 6 5 6 6 4 4 5 4 3 5 9 9 8 7 6 5 4 4 3 7 9 11 10 9 9 10
5 5 5 5 5 5 6 11 10 10 10 10 8 8 9 8 7 6 5 5 5 6 5 5 5 4 4 6 9 11 10 8 1 3 3 3 3 9 11 12 11 11 11
5 4 4 5 6 5 4 6 10 11 10 9 8 8 6 2 1 3 5 7 7 6 6 7 6 6 6 6 8 10 11 1 2 2 1 4 3 8 13 12 11 11 11
9 7 5 5 5 5 5 4 5 3 2 3 3 4 3 3 3 3 6 9 8 8 7 8 8 4 5 2 1 7 3 4 2 3 2 8 8 9 10 12 11 11 10
10 6 7 6 5 5 4 3 2 2 1 2 3 3 3 3 3 3 3 2 1 2 1 5 2 5 4 2 2 3 3 4 3 4 5 10 10 9 11 12 12 13 12
10 10 8 7 5 5 3 3 4 3 3 3 4 4 2 2 3 4 3 3 3 3 3 4 2 2 4 4 5 4 5 4 3 3 4 10 9 9 7 9 12 12 13
10 10 9 8 6 5 5 3 3 4 4 4 3 3 4 3 3 3 3 3 3 3 3 3 3 4 4 4 4 6 5 5 5 3 3 11 14 12 11 12 12 12 13
11 11 10 9 6 6 5 6 5 4 5 3 3 4 5 3 3 4 4 1 3 4 2 4 4 3 4 4 5 6 7 5 5 4 3 4 14 16 17 16 13 12 11
11 10 11 11 7 7 7 6 4 4 4 4 4 6 5 4 5 4 3 1 1 3 4 4 4 2 3 3 4 5 5 5 4 4 4 3 3 12 13 12 11 10 10
10 11 10 10 9 8 7 4 4 5 4 4 4 3 6 6 5 5 2 2 2 2 2 2 1 2 3 2 2 3 1 4 5 7 5 3 1 3 9 10 10 10 12
14 12 12 9 11 10 7 5 5 4 4 4 3 4 6 5 5 3 2 2 2 2 3 2 2 2 1 2 4 4 3 4 3 3 4 4 4 3 3 4 8 7 9
13 13 13 10 11 9 5 4 3 1 1 2 4 4 6 4 5 4 2 3 2 2 3 2 2 1 2 4 5 4 4 4 4 3 3 4 4 4 3 1 2 2 6
10 11 9 9 8 7 4 4 3 3 1 0 2 3 2 1 3 3 2 3 2 3 2 1 1 2 3 3 4 3 4 4 5 4 3 3 5 4 4 3 2 1 3
14 12 9 11 9 7 3 3 3 3 2 1 2 2 4 2 3 3 3 3 4 4 3 2 0 2 2 1 3 3 3 4 4 5 4 4 6 5 5 5 6 6 5
13 13 14 12 11 7 7 3 3 3 3 1 2 3 3 3 4 4 3 3 4 3 3 1 2 2 3 1 1 4 2 2 1 3 5 4 5 4 4 5 5 5 5
16 14 13 11 12 9 7 5 5 5 4 3 3 1 1 2 5 5 5 4 4 3 4 2 1 2 3 2 2 3 1 4 4 2 3 3 4 4 3 3 4 5 5
13 15 14 12 11 9 10 9 6 4 3 2 1 2 1 3 4 4 6 5 5 4 3 4 3 3 2 2 2 2 3 4 4 4 2 1 3 3 3 3 3 4 3
7 9 10 12 11 10 9 8 9 8 6 3 3 3 2 2 3 5 6 5 5 5 5 3 4 4 3 3 1 1 3 3 2 4 3 2 4 2 3 3 2 2 1
Wind_Direction
241 130 114 109 107 107 105 107 105 104 106 112 117 123 127 128 131 131 128 129 129 126 123 117 112 110 106 98 102 111 120 117 115 123 140 123 112 98 110 117 109 109 108
151 148 121 118 111 108 106 111 112 111 116 114 120 127 130 135 139 138 136 138 134 128 127 122 118 113 112 114 108 109 114 120 125 129 137 139 138 121 100 114 103 120 118
144 122 117 116 119 110 113 116 114 119 120 119 128 132 138 141 145 141 143 146 144 141 140 132 129 127 128 119 116 122 127 120 116 123 107 48 102 133 147 155 119 124 120
136 117 119 118 113 118 116 113 116 123 117 121 127 132 139 145 155 147 151 157 165 163 167 153 148 137 133 136 131 117 112 131 103 106 96 75 164 156 154 145 148 127 122
127 133 140 131 123 120 120 123 125 121 123 120 127 132 136 146 154 149 151 159 167 176 183 175 168 154 157 160 136 147 148 131 115 118 115 92 8 163 158 147 155 136 134
136 147 143 134 132 132 128 123 121 126 129 132 134 136 142 144 148 145 142 147 149 157 171 168 174 170 153 143 138 162 181 143 115 106 116 82 51 165 159 155 144 137 130
146 152 147 148 146 146 136 128 130 133 125 136 140 140 138 142 148 146 148 142 148 147 145 152 175 148 113 122 133 144 128 116 137 126 142 142 159 177 162 158 145 139 138
152 157 163 161 156 152 142 137 144 134 142 151 141 138 129 143 147 146 153 156 153 152 148 148 165 120 122 131 136 154 186 243 136 150 138 138 171 173 174 164 157 154 151
162 156 157 167 164 164 152 155 151 151 159 154 151 142 137 152 150 144 160 174 157 169 169 160 153 156 140 140 151 174 225 252 155 178 125 134 139 169 178 169 170 161 159
158 168 162 165 150 164 168 166 169 169 173 163 166 156 152 165 162 163 168 208 183 178 171 179 193 177 169 145 153 183 204 231 203 174 126 157 150 185 182 173 174 176 168
175 186 179 179 176 169 166 186 184 181 182 177 170 177 170 160 170 218 183 225 207 202 196 199 214 207 189 175 164 180 188 199 213 287 107 242 218 210 182 180 183 184 182
191 196 193 196 189 168 185 188 190 205 179 206 182 195 145 183 185 227 236 224 224 218 228 220 211 228 231 171 216 183 163 185 200 238 275 251 245 216 193 184 190 193 191
189 193 197 205 190 187 197 168 192 191 188 233 239 212 185 188 235 224 239 266 286 263 280 265 251 161 218 183 204 206 199 187 192 209 233 245 241 218 213 195 194 194 197
188 192 196 209 194 189 194 182 188 173 206 215 223 228 196 205 235 230 227 233 203 198 233 267 263 256 178 216 209 225 211 190 206 196 209 235 230 217 257 229 202 202 206
192 192 195 198 190 187 186 183 192 195 207 213 227 241 223 207 229 226 234 233 229 215 195 242 263 241 226 210 217 219 216 206 207 190 199 228 219 185 202 235 233 210 210
195 196 186 202 182 178 190 188 208 199 206 195 219 234 235 207 219 223 250 219 224 220 181 225 233 241 244 220 218 191 227 214 202 178 194 243 212 199 201 212 206 222 214
196 192 190 191 179 177 199 206 211 214 186 214 199 206 211 211 232 243 230 182 216 197 221 210 220 244 255 249 253 205 202 203 181 192 187 218 236 209 210 214 204 210 219
187 184 187 187 174 174 201 213 198 210 202 190 191 208 183 201 216 206 197 207 195 197 220 234 182 222 283 251 287 337 169 188 172 187 187 164 222 173 202 218 230 228 231
182 174 183 178 174 174 195 197 171 181 200 194 173 189 183 203 207 192 193 186 166 102 87 128 76 140 99 79 74 28 22 16 47 95 128 141 170 168 159 206 222 217 231
175 173 172 171 172 168 173 174 113 261 288 187 201 192 182 188 193 182 188 174 136 83 51 44 91 46 118 104 69 48 47 39 36 57 120 123 140 150 150 151 331 277 278
166 171 170 164 173 156 179 159 154 175 221 171 223 256 92 186 236 161 144 134 114 121 121 143 115 97 61 98 107 46 49 57 51 30 56 112 126 132 153 189 137 116 100
172 180 176 187 175 181 187 161 134 146 179 176 252 255 207 207 193 173 165 170 144 114 82 55 159 107 72 43 122 85 47 353 23 25 38 68 75 80 81 83 94 87 81
176 183 189 187 182 186 182 118 91 95 82 109 155 194 224 176 198 173 144 150 140 127 134 96 107 98 130 1 97 131 105 165 82 356 29 44 55 61 76 82 80 76 69
192 187 190 185 185 187 171 172 157 165 172 192 191 190 115 187 187 174 163 148 153 129 130 132 90 106 111 146 23 19 75 145 154 106 38 43 78 66 99 85 88 83 79
183 191 188 185 185 188 184 187 175 178 173 116 125 175 168 212 219 163 161 148 146 148 136 131 86 72 75 125 162 146 68 55 72 124 129 46 50 36 53 99 105 91 70
183 188 190 180 191 185 185 190 183 186 169 148 168 196 207 187 187 173 158 164 150 144 149 137 100 76 70 70 38 120 146 152 183 135 116 122 132 18 40 52 64 79 32